Location: Oberkirch
(48.5323°N, 8.0787°E)
Time: 07:25:10
(UTC+00:00)

BlueWalker 3 - Pass Details

Date: 08 November 2025
Orbit: 455 x 462 km, 53.2° (Epoch: 12 December)

Event Time Altitude Azimuth Distance (km) Brightness Sun altitude
Exits shadow 03:53:04 35° 123° (ESE) 758 3.2 -25.3°
Drops below altitude 10° 03:55:17 10° 120° (ESE) 1,606 5.2 -24.9°
Sets 03:57:25 0° 120° (ESE) 2,476 6.4 -24.6°
